| time (UTC) | temp F | wind direction | speed knots | gust knots | rain 1hr in | rain 24hr in | rain mn in | humidity % | barometer mb |
| 20260510140256 | 74 | 289 | 0.9 | 1.7 | 0.00 | 0.00 | 0.00 | 52 | 1014.9 |
| 20260510135755 | 73 | 190 | 0.0 | 1.7 | 0.00 | 0.00 | 0.00 | 51 | 1014.8 |
| 20260510135251 | 73 | 233 | 0.9 | 1.7 | 0.00 | 0.00 | 0.00 | 52 | 1014.9 |
| 20260510134749 | 72 | 268 | 0.9 | 2.6 | 0.00 | 0.00 | 0.00 | 54 | 1014.7 |
| 20260510134246 | 72 | 233 | 0.0 | 2.6 | 0.00 | 0.00 | 0.00 | 54 | 1014.8 |
| 20260510133742 | 73 | 237 | 0.0 | 2.6 | 0.00 | 0.00 | 0.00 | 53 | 1014.8 |
| 20260510133238 | 72 | 193 | 0.9 | 1.7 | 0.00 | 0.00 | 0.00 | 54 | 1014.9 |
| 20260510132734 | 71 | 203 | 0.0 | 0.9 | 0.00 | 0.00 | 0.00 | 55 | 1015.1 |
| 20260510132232 | 71 | 117 | 1.7 | 2.6 | 0.00 | 0.00 | 0.00 | 55 | 1015.0 |
| 20260510131728 | 71 | 223 | 0.0 | 1.7 | 0.00 | 0.00 | 0.00 | 57 | 1015.0 |
| 20260510131227 | 71 | 33 | 0.9 | 1.7 | 0.00 | 0.00 | 0.00 | 60 | 1014.9 |
| 20260510130723 | 70 | 270 | 0.0 | 0.9 | 0.00 | 0.00 | 0.00 | 60 | 1015.1 |
| 20260510130220 | 69 | 255 | 0.0 | 0.9 | 0.00 | 0.00 | 0.00 | 64 | 1015.0 |
| 20260510125716 | 68 | 190 | 0.0 | 0.9 | 0.00 | 0.00 | 0.00 | 66 | 1014.8 |
| 20260510125212 | 67 | 131 | 0.9 | 2.6 | 0.00 | 0.00 | 0.00 | 68 | 1014.7 |
| 20260510124709 | 66 | 213 | 0.9 | 2.6 | 0.00 | 0.00 | 0.00 | 69 | 1014.9 |
| 20260510124207 | 66 | 254 | 0.0 | 1.7 | 0.00 | 0.00 | 0.00 | 71 | 1014.8 |
| 20260510123701 | 65 | 163 | 0.9 | 1.7 | 0.00 | 0.00 | 0.00 | 73 | 1014.7 |
| 20260510123158 | 64 | 214 | 0.9 | 2.6 | 0.00 | 0.00 | 0.00 | 75 | 1014.9 |
| 20260510122654 | 64 | 228 | 0.0 | 2.6 | 0.00 | 0.00 | 0.00 | 77 | 1014.6 |
| 20260510122151 | 64 | 226 | 0.0 | 1.7 | 0.00 | 0.00 | 0.00 | 80 | 1014.6 |
| 20260510121647 | 63 | 244 | 0.0 | 1.7 | 0.00 | 0.00 | 0.00 | 80 | 1014.4 |
| 20260510121144 | 62 | 304 | 0.0 | 0.0 | 0.00 | 0.00 | 0.00 | 88 | 1014.5 |
| 20260510120642 | 60 | 305 | 0.0 | 0.0 | 0.00 | 0.00 | 0.00 | 96 | 1014.3 |
| 20260510120137 | 58 | 307 | 0.0 | 0.0 | 0.00 | 0.00 | 0.00 | 97 | 1013.9 |
| 20260510115634 | 57 | 307 | 0.0 | 0.0 | 0.00 | 0.00 | 0.00 | 97 | 1014.2 |
| 20260510115132 | 58 | 307 | 0.0 | 0.0 | 0.00 | 0.00 | 0.00 | 97 | 1014.2 |
| 20260510114627 | 56 | 309 | 0.0 | 0.0 | 0.00 | 0.00 | 0.00 | 97 | 1014.1 |
| 20260510114124 | 55 | 307 | 0.0 | 0.0 | 0.00 | 0.00 | 0.00 | 97 | 1014.1 |
| 20260510113619 | 54 | 308 | 0.9 | 0.9 | 0.00 | 0.00 | 0.00 | 97 | 1014.1 |
| 20260510113117 | 53 | 301 | 0.0 | 0.0 | 0.00 | 0.00 | 0.00 | 97 | 1014.0 |
| 20260510112613 | 53 | 301 | 0.0 | 0.0 | 0.00 | 0.00 | 0.00 | 97 | 1013.8 |
| 20260510112109 | 52 | 301 | 0.0 | 0.0 | 0.00 | 0.00 | 0.00 | 97 | 1013.8 |
| 20260510111606 | 52 | 301 | 0.0 | 0.0 | 0.00 | 0.00 | 0.00 | 97 | 1013.7 |
| 20260510111102 | 52 | 301 | 0.0 | 0.0 | 0.00 | 0.00 | 0.00 | 97 | 1013.7 |
| 20260510110558 | 52 | 301 | 0.0 | 0.0 | 0.00 | 0.00 | 0.00 | 97 | 1013.5 |
| 20260510110055 | 51 | 301 | 0.0 | 0.0 | 0.00 | 0.00 | 0.00 | 97 | 1013.3 |
| 20260510105550 | 51 | 301 | 0.0 | 0.0 | 0.00 | 0.00 | 0.00 | 97 | 1013.0 |
| 20260510105045 | 51 | 301 | 0.0 | 0.0 | 0.00 | 0.00 | 0.00 | 97 | 1013.1 |
| 20260510104542 | 51 | 300 | 0.0 | 0.0 | 0.00 | 0.00 | 0.00 | 97 | 1013.0 |
| 20260510104038 | 52 | 300 | 0.0 | 0.0 | 0.00 | 0.00 | 0.00 | 96 | 1012.9 |
| 20260510103536 | 52 | 300 | 0.0 | 0.0 | 0.00 | 0.00 | 0.00 | 96 | 1012.9 |
| 20260510103032 | 53 | 300 | 0.0 | 0.0 | 0.00 | 0.00 | 0.00 | 96 | 1012.7 |
| 20260510102527 | 53 | 300 | 0.0 | 0.0 | 0.00 | 0.00 | 0.00 | 96 | 1012.8 |
| 20260510102024 | 53 | 300 | 0.0 | 0.0 | 0.00 | 0.00 | 0.00 | 96 | 1012.5 |
| 20260510101522 | 53 | 300 | 0.0 | 0.0 | 0.00 | 0.00 | 0.00 | 97 | 1012.6 |
| 20260510101020 | 53 | 300 | 0.0 | 0.0 | 0.00 | 0.00 | 0.00 | 96 | 1012.6 |
| 20260510100516 | 54 | 300 | 0.0 | 0.0 | 0.00 | 0.00 | 0.00 | 97 | 1012.5 |
| 20260510100013 | 54 | 300 | 0.0 | 0.0 | 0.00 | 0.00 | 0.00 | 97 | 1012.4 |
| 20260510095508 | 54 | 305 | 0.0 | 0.0 | 0.00 | 0.00 | 0.00 | 96 | 1012.5 |
| 20260510095008 | 54 | 314 | 0.0 | 0.0 | 0.00 | 0.00 | 0.00 | 96 | 1012.4 |
| 20260510094502 | 54 | 314 | 0.0 | 0.0 | 0.00 | 0.00 | 0.00 | 96 | 1012.3 |
| 20260510093958 | 54 | 313 | 0.0 | 0.0 | 0.00 | 0.00 | 0.00 | 96 | 1012.5 |
| 20260510093454 | 54 | 313 | 0.0 | 0.0 | 0.00 | 0.00 | 0.00 | 96 | 1012.1 |
| 20260510092951 | 54 | 313 | 0.0 | 0.0 | 0.00 | 0.00 | 0.00 | 96 | 1012.5 |
| 20260510092449 | 55 | 313 | 0.0 | 0.0 | 0.00 | 0.00 | 0.00 | 96 | 1012.5 |
| 20260510091948 | 55 | 314 | 0.0 | 0.0 | 0.00 | 0.00 | 0.00 | 96 | 1012.4 |
| 20260510091445 | 56 | 314 | 0.0 | 0.9 | 0.00 | 0.00 | 0.00 | 96 | 1012.0 |
| 20260510090942 | 56 | 313 | 0.0 | 0.0 | 0.00 | 0.00 | 0.00 | 96 | 1012.0 |
| 20260510090439 | 56 | 313 | 0.0 | 0.0 | 0.00 | 0.00 | 0.00 | 96 | 1012.0 |
| 20260510085934 | 55 | 314 | 0.0 | 0.0 | 0.00 | 0.00 | 0.00 | 96 | 1011.8 |
| 20260510085430 | 55 | 315 | 0.0 | 0.0 | 0.00 | 0.00 | 0.00 | 96 | 1011.8 |
| 20260510084925 | 55 | 315 | 0.0 | 0.0 | 0.00 | 0.00 | 0.00 | 96 | 1011.8 |
| 20260510084423 | 55 | 337 | 0.9 | 0.9 | 0.00 | 0.00 | 0.00 | 95 | 1011.7 |
| 20260510083919 | 56 | 299 | 0.0 | 0.0 | 0.00 | 0.00 | 0.00 | 96 | 1011.6 |
| 20260510083415 | 57 | 299 | 0.0 | 0.0 | 0.00 | 0.00 | 0.00 | 96 | 1011.8 |
| 20260510082911 | 57 | 299 | 0.0 | 0.0 | 0.00 | 0.00 | 0.00 | 96 | 1011.5 |
| 20260510082409 | 57 | 299 | 0.0 | 0.0 | 0.00 | 0.00 | 0.00 | 96 | 1011.4 |
| 20260510081908 | 57 | 299 | 0.0 | 0.0 | 0.00 | 0.00 | 0.00 | 96 | 1011.4 |
| 20260510081404 | 56 | 299 | 0.0 | 0.0 | 0.00 | 0.00 | 0.00 | 96 | 1011.4 |
| 20260510080901 | 57 | 299 | 0.0 | 0.0 | 0.00 | 0.00 | 0.00 | 96 | 1011.2 |
| 20260510080400 | 57 | 299 | 0.0 | 0.0 | 0.00 | 0.00 | 0.00 | 96 | 1011.4 |
| 20260510075857 | 57 | 299 | 0.0 | 0.0 | 0.00 | 0.00 | 0.00 | 96 | 1011.1 |
| 20260510075355 | 57 | 299 | 0.0 | 0.0 | 0.00 | 0.00 | 0.00 | 95 | 1011.0 |
| 20260510074851 | 57 | 299 | 0.0 | 0.0 | 0.00 | 0.00 | 0.00 | 95 | 1011.1 |
| 20260510074348 | 57 | 299 | 0.0 | 0.0 | 0.00 | 0.00 | 0.00 | 95 | 1010.9 |
| 20260510073844 | 57 | 299 | 0.0 | 0.0 | 0.00 | 0.00 | 0.00 | 95 | 1011.1 |
| 20260510073340 | 57 | 299 | 0.0 | 0.0 | 0.00 | 0.00 | 0.00 | 95 | 1011.2 |
| 20260510072836 | 57 | 299 | 0.0 | 0.0 | 0.00 | 0.00 | 0.00 | 95 | 1011.0 |
| 20260510072334 | 56 | 299 | 0.0 | 0.0 | 0.00 | 0.00 | 0.00 | 95 | 1010.9 |
| 20260510071830 | 56 | 301 | 0.0 | 0.0 | 0.00 | 0.00 | 0.00 | 94 | 1010.9 |
| 20260510071326 | 56 | 0 | 0.9 | 1.7 | 0.00 | 0.00 | 0.00 | 93 | 1011.1 |
| 20260510070825 | 57 | 219 | 0.9 | 0.9 | 0.00 | 0.00 | 0.00 | 94 | 1010.7 |
| 20260510070321 | 57 | 218 | 0.0 | 0.0 | 0.00 | 0.00 | 0.00 | 93 | 1010.7 |
| 20260510065816 | 57 | 218 | 0.0 | 0.0 | 0.00 | 0.00 | 0.00 | 93 | 1011.0 |
| 20260510065313 | 57 | 218 | 0.0 | 0.0 | 0.00 | 0.00 | 0.00 | 93 | 1011.1 |
| 20260510064810 | 58 | 218 | 0.0 | 0.0 | 0.00 | 0.00 | 0.00 | 93 | 1010.9 |
| 20260510064308 | 58 | 218 | 0.0 | 0.0 | 0.00 | 0.00 | 0.00 | 92 | 1010.9 |
| 20260510063803 | 58 | 218 | 0.0 | 0.0 | 0.00 | 0.00 | 0.00 | 92 | 1011.0 |
| 20260510063259 | 59 | 217 | 0.0 | 0.0 | 0.00 | 0.00 | 0.00 | 92 | 1010.9 |
| 20260510062756 | 59 | 217 | 0.0 | 0.0 | 0.00 | 0.00 | 0.00 | 92 | 1011.0 |
| 20260510062252 | 59 | 216 | 0.9 | 0.9 | 0.00 | 0.00 | 0.00 | 92 | 1010.9 |
| 20260510061747 | 59 | 225 | 0.0 | 0.9 | 0.00 | 0.00 | 0.00 | 92 | 1010.8 |
| 20260510061245 | 59 | 225 | 0.0 | 0.0 | 0.00 | 0.00 | 0.00 | 92 | 1011.1 |
| 20260510060741 | 59 | 228 | 0.0 | 0.0 | 0.00 | 0.00 | 0.00 | 93 | 1011.2 |
| 20260510060238 | 59 | 228 | 0.0 | 0.0 | 0.00 | 0.00 | 0.00 | 92 | 1011.3 |
| 20260510055734 | 59 | 228 | 0.0 | 0.0 | 0.00 | 0.00 | 0.00 | 92 | 1011.4 |
| 20260510055233 | 59 | 228 | 0.0 | 0.0 | 0.00 | 0.00 | 0.00 | 92 | 1011.3 |
| 20260510054732 | 59 | 228 | 0.0 | 0.0 | 0.00 | 0.00 | 0.00 | 91 | 1011.4 |
| 20260510054229 | 59 | 228 | 0.0 | 0.0 | 0.00 | 0.00 | 0.00 | 91 | 1011.3 |
| 20260510053728 | 59 | 228 | 0.0 | 0.0 | 0.00 | 0.00 | 0.00 | 91 | 1011.4 |
| 20260510053225 | 59 | 228 | 0.0 | 0.0 | 0.00 | 0.00 | 0.00 | 90 | 1011.6 |
| 20260510052720 | 59 | 227 | 0.0 | 0.0 | 0.00 | 0.00 | 0.00 | 90 | 1011.5 |
| 20260510052217 | 60 | 227 | 0.0 | 0.0 | 0.00 | 0.00 | 0.00 | 89 | 1011.5 |
| 20260510051713 | 60 | 227 | 0.0 | 0.0 | 0.00 | 0.00 | 0.00 | 89 | 1011.4 |
| 20260510051209 | 60 | 227 | 0.0 | 0.0 | 0.00 | 0.00 | 0.00 | 88 | 1011.7 |
| 20260510050707 | 60 | 227 | 0.0 | 0.0 | 0.00 | 0.00 | 0.00 | 88 | 1011.4 |
| 20260510050204 | 61 | 226 | 0.0 | 0.0 | 0.00 | 0.00 | 0.00 | 87 | 1011.6 |
| 20260510045700 | 61 | 226 | 0.0 | 0.0 | 0.00 | 0.00 | 0.00 | 87 | 1011.7 |
| 20260510045157 | 62 | 226 | 0.0 | 0.0 | 0.00 | 0.00 | 0.00 | 86 | 1011.5 |
| 20260510044653 | 62 | 226 | 0.0 | 0.9 | 0.00 | 0.00 | 0.00 | 86 | 1011.5 |
| 20260510044151 | 62 | 226 | 0.0 | 0.0 | 0.00 | 0.00 | 0.00 | 85 | 1011.3 |
| 20260510043646 | 63 | 225 | 0.0 | 0.0 | 0.00 | 0.00 | 0.00 | 84 | 1011.6 |
| 20260510043143 | 64 | 53 | 0.0 | 0.0 | 0.00 | 0.00 | 0.00 | 82 | 1011.5 |
| 20260510042641 | 64 | 49 | 0.0 | 0.0 | 0.00 | 0.00 | 0.00 | 82 | 1011.7 |
| 20260510042137 | 63 | 169 | 0.0 | 0.9 | 0.00 | 0.00 | 0.00 | 84 | 1011.8 |
| 20260510041634 | 64 | 201 | 0.0 | 0.0 | 0.00 | 0.00 | 0.00 | 81 | 1011.4 |
| 20260510041131 | 64 | 200 | 0.0 | 0.0 | 0.00 | 0.00 | 0.00 | 81 | 1011.3 |
| 20260510040628 | 64 | 200 | 0.0 | 0.0 | 0.00 | 0.00 | 0.00 | 80 | 1011.4 |
| 20260510040125 | 64 | 64 | 0.9 | 1.7 | 0.00 | 0.00 | 0.00 | 81 | 1011.4 |
| 20260510035620 | 64 | 58 | 0.0 | 0.9 | 0.00 | 0.00 | 0.00 | 81 | 1011.5 |
| 20260510035121 | 64 | 58 | 0.9 | 0.9 | 0.00 | 0.00 | 0.00 | 80 | 1011.6 |
| 20260510034618 | 65 | 99 | 0.9 | 0.9 | 0.00 | 0.00 | 0.00 | 80 | 1011.3 |
| 20260510034115 | 65 | 163 | 0.9 | 0.9 | 0.00 | 0.00 | 0.00 | 80 | 1011.3 |
| 20260510033611 | 65 | 133 | 0.0 | 0.9 | 0.00 | 0.00 | 0.00 | 80 | 1011.2 |
| 20260510033109 | 64 | 42 | 1.7 | 1.7 | 0.00 | 0.00 | 0.00 | 80 | 1011.2 |
| 20260510032605 | 64 | 185 | 0.0 | 0.9 | 0.00 | 0.00 | 0.00 | 81 | 1011.2 |
| 20260510032101 | 64 | 246 | 0.0 | 0.0 | 0.00 | 0.00 | 0.00 | 81 | 1011.1 |
| 20260510031556 | 64 | 273 | 0.0 | 0.0 | 0.00 | 0.00 | 0.00 | 80 | 1011.2 |
| 20260510031053 | 65 | 273 | 0.0 | 0.0 | 0.00 | 0.00 | 0.00 | 79 | 1011.1 |
| 20260510030547 | 66 | 171 | 0.9 | 0.9 | 0.00 | 0.00 | 0.00 | 78 | 1010.9 |
| 20260510030045 | 66 | 181 | 0.0 | 0.9 | 0.00 | 0.00 | 0.00 | 77 | 1011.2 |
| 20260510025542 | 65 | 72 | 0.9 | 0.9 | 0.00 | 0.00 | 0.00 | 77 | 1011.1 |
| 20260510025040 | 65 | 212 | 0.0 | 0.9 | 0.00 | 0.00 | 0.00 | 78 | 1011.0 |
| 20260510024536 | 65 | 241 | 0.0 | 0.0 | 0.00 | 0.00 | 0.00 | 78 | 1010.9 |
| 20260510024032 | 65 | 242 | 0.0 | 0.0 | 0.00 | 0.00 | 0.00 | 77 | 1011.0 |
| 20260510023528 | 66 | 258 | 0.0 | 0.0 | 0.00 | 0.00 | 0.00 | 77 | 1010.9 |
| 20260510023027 | 66 | 298 | 0.0 | 0.0 | 0.00 | 0.00 | 0.00 | 76 | 1011.1 |
| 20260510022526 | 66 | 321 | 0.0 | 0.9 | 0.00 | 0.00 | 0.00 | 75 | 1011.0 |
| 20260510022026 | 66 | 162 | 0.0 | 0.9 | 0.00 | 0.00 | 0.00 | 75 | 1011.1 |
| 20260510021523 | 66 | 13 | 0.9 | 1.7 | 0.00 | 0.00 | 0.00 | 75 | 1010.9 |
| 20260510021021 | 66 | 24 | 0.0 | 0.9 | 0.00 | 0.00 | 0.00 | 74 | 1010.7 |
| 20260510020514 | 66 | 332 | 0.9 | 0.9 | 0.00 | 0.00 | 0.00 | 74 | 1010.5 |
| 20260510020010 | 67 | 305 | 0.0 | 0.9 | 0.00 | 0.00 | 0.00 | 73 | 1010.5 |
| 20260510015506 | 67 | 11 | 0.0 | 1.7 | 0.00 | 0.00 | 0.00 | 72 | 1010.4 |
| 20260510015002 | 67 | 30 | 0.9 | 1.7 | 0.00 | 0.00 | 0.00 | 72 | 1010.3 |
| 20260510014459 | 67 | 15 | 0.9 | 1.7 | 0.00 | 0.00 | 0.00 | 72 | 1010.2 |
| 20260510013956 | 67 | 291 | 0.0 | 0.0 | 0.00 | 0.00 | 0.00 | 71 | 1010.3 |
| 20260510013450 | 68 | 290 | 0.0 | 0.0 | 0.00 | 0.00 | 0.00 | 71 | 1010.3 |
| 20260510012946 | 68 | 290 | 0.0 | 0.9 | 0.00 | 0.00 | 0.00 | 69 | 1010.3 |
| 20260510012441 | 68 | 262 | 0.0 | 0.9 | 0.00 | 0.00 | 0.00 | 69 | 1010.1 |
| 20260510011936 | 68 | 76 | 1.7 | 2.6 | 0.00 | 0.00 | 0.00 | 68 | 1009.7 |
| 20260510011431 | 68 | 13 | 0.0 | 3.5 | 0.00 | 0.00 | 0.00 | 68 | 1009.5 |
| 20260510010928 | 69 | 44 | 0.9 | 1.7 | 0.00 | 0.00 | 0.00 | 68 | 1009.7 |
| 20260510010425 | 68 | 350 | 0.9 | 1.7 | 0.00 | 0.00 | 0.00 | 68 | 1009.7 |
| 20260510005922 | 69 | 298 | 0.0 | 0.0 | 0.00 | 0.00 | 0.00 | 68 | 1009.5 |
| 20260510005418 | 69 | 110 | 0.0 | 0.9 | 0.00 | 0.00 | 0.00 | 67 | 1009.5 |
| 20260510004915 | 69 | 267 | 0.0 | 0.0 | 0.00 | 0.00 | 0.00 | 67 | 1009.4 |
| 20260510004413 | 69 | 333 | 0.0 | 1.7 | 0.00 | 0.00 | 0.00 | 67 | 1009.5 |
| 20260510003910 | 69 | 292 | 0.0 | 0.9 | 0.00 | 0.00 | 0.00 | 67 | 1009.5 |
| 20260510003407 | 69 | 19 | 0.9 | 0.9 | 0.00 | 0.00 | 0.00 | 66 | 1009.5 |
| 20260510002906 | 70 | 282 | 0.0 | 0.0 | 0.00 | 0.00 | 0.00 | 66 | 1009.3 |
| 20260510002404 | 70 | 283 | 0.0 | 1.7 | 0.00 | 0.00 | 0.00 | 65 | 1009.5 |
| 20260510001900 | 70 | 353 | 1.7 | 2.6 | 0.00 | 0.00 | 0.00 | 65 | 1009.5 |
| 20260510001358 | 70 | 68 | 0.9 | 2.6 | 0.00 | 0.00 | 0.00 | 65 | 1009.5 |
| 20260510000854 | 70 | 299 | 0.0 | 0.9 | 0.00 | 0.00 | 0.00 | 65 | 1009.3 |
| 20260510000351 | 70 | 299 | 0.0 | 0.0 | 0.00 | 0.00 | 0.00 | 65 | 1009.0 |
| 20260509235847 | 70 | 299 | 0.0 | 0.0 | 0.00 | 0.00 | 0.00 | 65 | 1008.9 |
| 20260509235344 | 71 | 299 | 0.0 | 0.9 | 0.00 | 0.00 | 0.00 | 65 | 1008.9 |
| 20260509234840 | 71 | 293 | 0.0 | 0.0 | 0.00 | 0.00 | 0.00 | 64 | 1009.0 |
| 20260509234337 | 71 | 293 | 0.0 | 0.0 | 0.00 | 0.00 | 0.00 | 64 | 1008.9 |
| 20260509233836 | 71 | 245 | 0.0 | 0.0 | 0.00 | 0.00 | 0.00 | 63 | 1008.9 |
| 20260509233333 | 71 | 307 | 0.0 | 0.0 | 0.00 | 0.00 | 0.00 | 63 | 1008.9 |
| 20260509232828 | 71 | 276 | 0.0 | 0.0 | 0.00 | 0.00 | 0.00 | 63 | 1008.7 |
| 20260509232327 | 71 | 276 | 0.0 | 0.0 | 0.00 | 0.00 | 0.00 | 63 | 1008.6 |
| 20260509231822 | 71 | 276 | 0.0 | 0.0 | 0.00 | 0.00 | 0.00 | 62 | 1008.6 |
| 20260509231319 | 72 | 276 | 0.0 | 0.9 | 0.00 | 0.00 | 0.00 | 62 | 1008.6 |
| 20260509230817 | 72 | 314 | 0.0 | 0.9 | 0.00 | 0.00 | 0.00 | 61 | 1008.6 |
| 20260509230314 | 72 | 296 | 0.0 | 0.9 | 0.00 | 0.00 | 0.00 | 60 | 1008.5 |
| 20260509225809 | 73 | 296 | 0.0 | 1.7 | 0.00 | 0.00 | 0.00 | 59 | 1008.6 |
| 20260509225306 | 73 | 335 | 0.9 | 2.6 | 0.00 | 0.00 | 0.00 | 58 | 1008.6 |
| 20260509224802 | 73 | 307 | 0.0 | 0.0 | 0.00 | 0.00 | 0.00 | 58 | 1008.6 |
| 20260509224258 | 74 | 41 | 0.0 | 0.9 | 0.00 | 0.00 | 0.00 | 57 | 1008.4 |
| 20260509223755 | 74 | 31 | 1.7 | 5.2 | 0.00 | 0.00 | 0.00 | 56 | 1008.2 |
| 20260509223252 | 75 | 5 | 0.9 | 2.6 | 0.00 | 0.00 | 0.00 | 54 | 1008.5 |
| 20260509222749 | 75 | 66 | 1.7 | 5.2 | 0.00 | 0.00 | 0.00 | 53 | 1008.5 |
| 20260509222244 | 76 | 15 | 1.7 | 3.5 | 0.00 | 0.00 | 0.00 | 53 | 1008.4 |
| 20260509221740 | 76 | 24 | 0.9 | 2.6 | 0.00 | 0.00 | 0.00 | 54 | 1008.6 |
| 20260509221237 | 75 | 94 | 1.7 | 3.5 | 0.00 | 0.00 | 0.00 | 52 | 1008.4 |
| 20260509220732 | 74 | 8 | 1.7 | 3.5 | 0.00 | 0.00 | 0.00 | 55 | 1008.5 |
| 20260509220229 | 75 | 19 | 0.9 | 2.6 | 0.00 | 0.00 | 0.00 | 55 | 1008.5 |
| 20260509215725 | 76 | 40 | 4.3 | 5.2 | 0.00 | 0.00 | 0.00 | 53 | 1008.5 |
| 20260509215221 | 76 | 28 | 1.7 | 3.5 | 0.00 | 0.00 | 0.00 | 51 | 1008.6 |
| 20260509214719 | 77 | 4 | 2.6 | 5.2 | 0.00 | 0.00 | 0.00 | 50 | 1008.5 |
| 20260509214216 | 77 | 9 | 0.9 | 2.6 | 0.00 | 0.00 | 0.00 | 52 | 1008.4 |
| 20260509213713 | 77 | 299 | 1.7 | 5.2 | 0.00 | 0.00 | 0.00 | 51 | 1008.4 |
| 20260509213208 | 77 | 65 | 0.9 | 2.6 | 0.00 | 0.00 | 0.00 | 51 | 1008.1 |
| 20260509212706 | 77 | 91 | 4.3 | 6.1 | 0.00 | 0.00 | 0.00 | 49 | 1008.0 |
| 20260509212203 | 77 | 152 | 5.2 | 6.1 | 0.00 | 0.00 | 0.00 | 48 | 1008.2 |
| 20260509211659 | 77 | 66 | 0.9 | 2.6 | 0.00 | 0.00 | 0.00 | 50 | 1008.1 |
| 20260509211155 | 76 | 55 | 3.5 | 11.3 | 0.00 | 0.00 | 0.00 | 50 | 1008.2 |
| 20260509210652 | 77 | 74 | 4.3 | 6.1 | 0.00 | 0.00 | 0.00 | 49 | 1008.2 |
| 20260509210149 | 77 | 47 | 1.7 | 5.2 | 0.00 | 0.00 | 0.00 | 49 | 1008.2 |
| 20260509205644 | 77 | 55 | 1.7 | 6.1 | 0.00 | 0.00 | 0.00 | 50 | 1008.2 |
| 20260509205144 | 78 | 69 | 6.1 | 7.0 | 0.00 | 0.00 | 0.00 | 48 | 1008.4 |
| 20260509204641 | 77 | 44 | 1.7 | 2.6 | 0.00 | 0.00 | 0.00 | 48 | 1008.1 |
| 20260509204137 | 76 | 23 | 0.0 | 6.1 | 0.00 | 0.00 | 0.00 | 50 | 1008.3 |
| 20260509203633 | 76 | 91 | 5.2 | 7.0 | 0.00 | 0.00 | 0.00 | 49 | 1008.3 |
| 20260509203131 | 76 | 25 | 4.3 | 7.0 | 0.00 | 0.00 | 0.00 | 51 | 1008.3 |
| 20260509202631 | 74 | 75 | 1.7 | 5.2 | 0.00 | 0.00 | 0.00 | 53 | 1008.3 |
| 20260509202126 | 75 | 26 | 3.5 | 8.7 | 0.00 | 0.00 | 0.00 | 50 | 1008.6 |
| 20260509201622 | 76 | 102 | 5.2 | 6.1 | 0.00 | 0.00 | 0.00 | 48 | 1008.3 |
| 20260509201120 | 75 | 42 | 5.2 | 7.8 | 0.00 | 0.00 | 0.00 | 51 | 1008.6 |
| 20260509200615 | 75 | 81 | 1.7 | 7.0 | 0.00 | 0.00 | 0.00 | 50 | 1008.6 |
| 20260509200111 | 76 | 61 | 3.5 | 6.1 | 0.00 | 0.00 | 0.00 | 48 | 1008.6 |
| 20260509195607 | 76 | 40 | 6.1 | 11.3 | 0.00 | 0.00 | 0.00 | 48 | 1008.7 |
| 20260509195101 | 76 | 17 | 5.2 | 7.0 | 0.00 | 0.00 | 0.00 | 48 | 1008.5 |
| 20260509194601 | 75 | 78 | 5.2 | 7.8 | 0.00 | 0.00 | 0.00 | 49 | 1008.4 |
| 20260509194059 | 76 | 115 | 2.6 | 7.0 | 0.00 | 0.00 | 0.00 | 48 | 1008.4 |
| 20260509193554 | 77 | 57 | 1.7 | 2.6 | 0.00 | 0.00 | 0.00 | 47 | 1008.6 |
| 20260509193051 | 77 | 38 | 1.7 | 7.0 | 0.00 | 0.00 | 0.00 | 48 | 1008.5 |
| 20260509192547 | 77 | 272 | 1.7 | 8.7 | 0.00 | 0.00 | 0.00 | 48 | 1008.6 |
| 20260509192043 | 77 | 120 | 1.7 | 9.6 | 0.00 | 0.00 | 0.00 | 47 | 1008.6 |
| 20260509191543 | 75 | 79 | 0.0 | 5.2 | 0.00 | 0.00 | 0.00 | 53 | 1009.0 |
| 20260509191039 | 74 | 44 | 2.6 | 3.5 | 0.00 | 0.00 | 0.00 | 51 | 1008.9 |
| 20260509190536 | 74 | 91 | 6.1 | 7.0 | 0.00 | 0.00 | 0.00 | 51 | 1008.7 |
| 20260509190034 | 74 | 88 | 1.7 | 3.5 | 0.00 | 0.00 | 0.00 | 52 | 1008.9 |
| 20260509185531 | 74 | 158 | 1.7 | 3.5 | 0.00 | 0.00 | 0.00 | 51 | 1009.0 |
| 20260509185027 | 74 | 6 | 0.9 | 2.6 | 0.00 | 0.00 | 0.00 | 52 | 1009.1 |
| 20260509184526 | 73 | 345 | 0.9 | 6.1 | 0.00 | 0.00 | 0.00 | 52 | 1009.2 |
| 20260509184021 | 75 | 84 | 3.5 | 6.1 | 0.00 | 0.00 | 0.00 | 48 | 1009.2 |
| 20260509183517 | 76 | 100 | 3.5 | 7.8 | 0.00 | 0.00 | 0.00 | 46 | 1009.2 |
| 20260509183013 | 76 | 41 | 6.1 | 7.0 | 0.00 | 0.00 | 0.00 | 48 | 1009.3 |
| 20260509182509 | 75 | 37 | 0.9 | 1.7 | 0.00 | 0.00 | 0.00 | 48 | 1009.2 |
| 20260509182007 | 75 | 136 | 0.9 | 5.2 | 0.00 | 0.00 | 0.00 | 50 | 1009.4 |
| 20260509181505 | 74 | 264 | 1.7 | 2.6 | 0.00 | 0.00 | 0.00 | 51 | 1009.6 |
| 20260509181002 | 74 | 59 | 0.9 | 2.6 | 0.00 | 0.00 | 0.00 | 50 | 1009.5 |
| 20260509180457 | 74 | 106 | 3.5 | 7.8 | 0.00 | 0.00 | 0.00 | 49 | 1009.7 |
| 20260509175954 | 75 | 43 | 4.3 | 5.2 | 0.00 | 0.00 | 0.00 | 49 | 1009.6 |
| 20260509175450 | 75 | 5 | 0.9 | 5.2 | 0.00 | 0.00 | 0.00 | 50 | 1009.6 |
| 20260509174947 | 75 | 38 | 1.7 | 5.2 | 0.00 | 0.00 | 0.00 | 50 | 1009.8 |
| 20260509174443 | 74 | 40 | 2.6 | 6.1 | 0.00 | 0.00 | 0.00 | 49 | 1009.5 |
| 20260509173939 | 73 | 84 | 3.5 | 7.0 | 0.00 | 0.00 | 0.00 | 51 | 1009.8 |
| 20260509173438 | 73 | 286 | 0.9 | 2.6 | 0.00 | 0.00 | 0.00 | 52 | 1009.9 |
| 20260509172935 | 74 | 57 | 2.6 | 7.0 | 0.00 | 0.00 | 0.00 | 52 | 1009.9 |
| 20260509172432 | 73 | 17 | 4.3 | 7.0 | 0.00 | 0.00 | 0.00 | 53 | 1010.0 |
| 20260509171928 | 72 | 66 | 1.7 | 6.1 | 0.00 | 0.00 | 0.00 | 54 | 1010.1 |
| 20260509171424 | 73 | 101 | 4.3 | 7.0 | 0.00 | 0.00 | 0.00 | 50 | 1010.2 |
| 20260509170921 | 73 | 324 | 2.6 | 6.1 | 0.00 | 0.00 | 0.00 | 52 | 1010.3 |
| 20260509170416 | 72 | 145 | 0.9 | 5.2 | 0.00 | 0.00 | 0.00 | 53 | 1010.3 |
| 20260509165913 | 73 | 22 | 3.5 | 7.8 | 0.00 | 0.00 | 0.00 | 53 | 1010.6 |
| 20260509165407 | 74 | 62 | 5.2 | 7.0 | 0.00 | 0.00 | 0.00 | 50 | 1010.5 |
| 20260509164902 | 73 | 42 | 0.9 | 1.7 | 0.00 | 0.00 | 0.00 | 53 | 1010.6 |
| 20260509164358 | 72 | 357 | 3.5 | 7.0 | 0.00 | 0.00 | 0.00 | 52 | 1010.7 |
| 20260509163855 | 71 | 142 | 2.6 | 5.2 | 0.00 | 0.00 | 0.00 | 53 | 1010.7 |
| 20260509163352 | 71 | 31 | 1.7 | 9.6 | 0.00 | 0.00 | 0.00 | 56 | 1010.5 |
| 20260509162851 | 71 | 74 | 5.2 | 7.0 | 0.00 | 0.00 | 0.00 | 54 | 1010.8 |
| 20260509162349 | 71 | 101 | 3.5 | 7.0 | 0.00 | 0.00 | 0.00 | 54 | 1010.9 |
| 20260509161846 | 72 | 82 | 4.3 | 8.7 | 0.00 | 0.00 | 0.00 | 53 | 1010.7 |
| 20260509161342 | 73 | 1 | 1.7 | 6.1 | 0.00 | 0.00 | 0.00 | 53 | 1010.7 |
| 20260509160838 | 73 | 216 | 1.7 | 3.5 | 0.00 | 0.00 | 0.00 | 54 | 1010.8 |
| 20260509160334 | 71 | 275 | 0.9 | 3.5 | 0.00 | 0.00 | 0.00 | 55 | 1010.7 |
| 20260509155829 | 71 | 30 | 1.7 | 7.0 | 0.00 | 0.00 | 0.00 | 53 | 1010.7 |
| 20260509155326 | 71 | 39 | 6.1 | 9.6 | 0.00 | 0.00 | 0.00 | 53 | 1010.8 |
| 20260509154822 | 72 | 35 | 3.5 | 7.8 | 0.00 | 0.00 | 0.00 | 53 | 1010.9 |
| 20260509154319 | 71 | 251 | 0.9 | 7.8 | 0.00 | 0.00 | 0.00 | 55 | 1010.9 |
| 20260509153816 | 70 | 62 | 4.3 | 7.8 | 0.00 | 0.00 | 0.00 | 56 | 1011.1 |
| 20260509153313 | 69 | 58 | 7.0 | 7.8 | 0.00 | 0.00 | 0.00 | 55 | 1010.9 |
| 20260509152810 | 70 | 45 | 1.7 | 7.0 | 0.00 | 0.00 | 0.00 | 56 | 1010.7 |
| 20260509152306 | 71 | 77 | 4.3 | 6.1 | 0.00 | 0.00 | 0.00 | 53 | 1010.8 |
| 20260509151803 | 71 | 64 | 2.6 | 8.7 | 0.00 | 0.00 | 0.00 | 53 | 1010.9 |
| 20260509151259 | 71 | 288 | 2.6 | 7.8 | 0.00 | 0.00 | 0.00 | 54 | 1010.9 |
| 20260509150758 | 70 | 57 | 3.5 | 5.2 | 0.00 | 0.00 | 0.00 | 55 | 1010.9 |
| 20260509150255 | 68 | 68 | 3.5 | 5.2 | 0.00 | 0.00 | 0.00 | 58 | 1011.1 |
| 20260509145752 | 68 | 78 | 6.1 | 9.6 | 0.00 | 0.00 | 0.00 | 58 | 1011.0 |
| 20260509145251 | 69 | 103 | 3.5 | 8.7 | 0.00 | 0.00 | 0.00 | 57 | 1011.1 |
| 20260509144748 | 70 | 108 | 5.2 | 7.0 | 0.00 | 0.00 | 0.00 | 55 | 1011.0 |
| 20260509144245 | 69 | 44 | 2.6 | 6.1 | 0.00 | 0.00 | 0.00 | 59 | 1011.1 |
| 20260509143742 | 70 | 49 | 2.6 | 7.8 | 0.00 | 0.00 | 0.00 | 61 | 1011.2 |
| 20260509143240 | 69 | 80 | 1.7 | 6.1 | 0.00 | 0.00 | 0.00 | 59 | 1011.3 |
| 20260509142736 | 70 | 297 | 0.9 | 7.0 | 0.00 | 0.00 | 0.00 | 58 | 1011.3 |
| 20260509142232 | 69 | 87 | 0.9 | 1.7 | 0.00 | 0.00 | 0.00 | 59 | 1011.3 |
| 20260509141728 | 69 | 130 | 5.2 | 7.8 | 0.00 | 0.00 | 0.00 | 58 | 1011.6 |
| 20260509141226 | 69 | 5 | 1.7 | 2.6 | 0.00 | 0.00 | 0.00 | 59 | 1011.6 |
| 20260509140722 | 67 | 36 | 0.9 | 6.1 | 0.00 | 0.00 | 0.00 | 62 | 1011.9 |